| time (UTC) | temp C | wind direction | speed KPH | gust KPH | rain 1hr cm | rain 24hr cm | rain mn cm | humidity % | barometer mb |
| 20260508045526 | 9 | 322 | 0.0 | 3.2 | 0.00 | 0.00 | 0.00 | 64 | 1008.0 |
| 20260508044521 | 9 | 0.0 | 0.0 | 0.00 | 0.00 | 0.00 | 64 | 1007.8 | |
| 20260508043517 | 9 | 0.0 | 0.0 | 0.00 | 0.00 | 0.00 | 63 | 1007.9 | |
| 20260508042533 | 9 | 0.0 | 0.0 | 0.00 | 0.00 | 0.00 | 63 | 1007.9 | |
| 20260508041529 | 9 | 0.0 | 0.0 | 0.00 | 0.00 | 0.00 | 62 | 1007.8 | |
| 20260508040525 | 9 | 345 | 1.6 | 3.2 | 0.00 | 0.00 | 0.00 | 61 | 1007.7 |
| 20260508035541 | 9 | 344 | 0.0 | 1.6 | 0.00 | 0.00 | 0.00 | 61 | 1007.7 |
| 20260508034516 | 9 | 345 | 1.6 | 4.8 | 0.00 | 0.00 | 0.00 | 60 | 1007.9 |
| 20260508033533 | 9 | 343 | 1.6 | 3.2 | 0.00 | 0.00 | 0.00 | 59 | 1008.0 |
| 20260508032529 | 9 | 343 | 0.0 | 3.2 | 0.00 | 0.00 | 0.00 | 58 | 1008.1 |
| 20260508031524 | 10 | 334 | 0.0 | 1.6 | 0.00 | 0.00 | 0.00 | 57 | 1008.1 |
| 20260508030521 | 10 | 333 | 0.0 | 3.2 | 0.00 | 0.00 | 0.00 | 56 | 1008.0 |
| 20260508025516 | 10 | 329 | 0.0 | 3.2 | 0.00 | 0.00 | 0.00 | 54 | 1007.9 |
| 20260508024532 | 11 | 0.0 | 0.0 | 0.00 | 0.00 | 0.00 | 48 | 1007.7 | |
| 20260508023528 | 11 | 307 | 1.6 | 4.8 | 0.00 | 0.00 | 0.00 | 48 | 1007.8 |
| 20260508022524 | 11 | 308 | 1.6 | 3.2 | 0.00 | 0.00 | 0.00 | 48 | 1007.8 |
| 20260508021520 | 11 | 304 | 3.2 | 9.7 | 0.00 | 0.00 | 0.00 | 47 | 1008.0 |
| 20260508020556 | 11 | 313 | 1.6 | 3.2 | 0.00 | 0.00 | 0.00 | 47 | 1007.8 |
| 20260508015532 | 11 | 300 | 4.8 | 11.3 | 0.00 | 0.00 | 0.00 | 46 | 1007.8 |
| 20260508014528 | 11 | 311 | 3.2 | 9.7 | 0.00 | 0.00 | 0.00 | 45 | 1007.8 |
| 20260508013523 | 11 | 310 | 4.8 | 11.3 | 0.00 | 0.00 | 0.00 | 44 | 1007.6 |
| 20260508012519 | 11 | 314 | 3.2 | 6.4 | 0.00 | 0.00 | 0.00 | 45 | 1007.4 |
| 20260508011515 | 11 | 306 | 3.2 | 6.4 | 0.00 | 0.00 | 0.00 | 45 | 1007.3 |
| 20260508010531 | 11 | 327 | 1.6 | 4.8 | 0.00 | 0.00 | 0.00 | 45 | 1007.0 |
| 20260508005547 | 11 | 315 | 1.6 | 3.2 | 0.00 | 0.00 | 0.00 | 44 | 1007.0 |
| 20260508004523 | 11 | 318 | 1.6 | 3.2 | 0.00 | 0.00 | 0.00 | 43 | 1007.0 |
| 20260508003519 | 11 | 315 | 3.2 | 6.4 | 0.00 | 0.00 | 0.00 | 42 | 1007.0 |
| 20260508002554 | 11 | 309 | 3.2 | 9.7 | 0.00 | 0.00 | 0.00 | 41 | 1007.0 |
| 20260508001530 | 12 | 300 | 8.0 | 17.7 | 0.00 | 0.00 | 0.00 | 42 | 1006.9 |
| 20260508000526 | 12 | 294 | 8.0 | 16.1 | 0.00 | 0.00 | 0.00 | 41 | 1007.0 |
| 20260507235522 | 12 | 306 | 9.7 | 22.5 | 0.00 | 0.00 | 0.00 | 40 | 1006.9 |
| 20260507234518 | 12 | 293 | 9.7 | 17.7 | 0.00 | 0.00 | 0.00 | 41 | 1006.8 |
| 20260507233534 | 12 | 293 | 9.7 | 17.7 | 0.00 | 0.00 | 0.00 | 41 | 1006.7 |
| 20260507232529 | 12 | 288 | 11.3 | 24.1 | 0.00 | 0.00 | 0.00 | 40 | 1006.8 |
| 20260507231525 | 12 | 307 | 9.7 | 24.1 | 0.00 | 0.00 | 0.00 | 39 | 1006.8 |
| 20260507230521 | 12 | 304 | 6.4 | 12.9 | 0.00 | 0.00 | 0.00 | 39 | 1006.9 |
| 20260507225516 | 12 | 302 | 8.0 | 14.5 | 0.00 | 0.00 | 0.00 | 40 | 1007.1 |
| 20260507224533 | 12 | 307 | 4.8 | 14.5 | 0.00 | 0.00 | 0.00 | 39 | 1007.0 |
| 20260507223528 | 12 | 286 | 11.3 | 24.1 | 0.00 | 0.00 | 0.00 | 39 | 1007.1 |
| 20260507222524 | 12 | 308 | 9.7 | 22.5 | 0.00 | 0.00 | 0.00 | 37 | 1007.1 |
| 20260507221519 | 13 | 295 | 16.1 | 29.0 | 0.00 | 0.00 | 0.00 | 37 | 1007.0 |
| 20260507220535 | 13 | 282 | 12.9 | 20.9 | 0.00 | 0.00 | 0.00 | 38 | 1007.1 |
| 20260507215530 | 12 | 322 | 9.7 | 25.7 | 0.00 | 0.00 | 0.00 | 39 | 1007.1 |
| 20260507214526 | 12 | 301 | 9.7 | 16.1 | 0.00 | 0.00 | 0.00 | 38 | 1006.9 |
| 20260507213522 | 12 | 302 | 11.3 | 24.1 | 0.00 | 0.00 | 0.00 | 37 | 1007.1 |
| 20260507212517 | 13 | 314 | 9.7 | 20.9 | 0.00 | 0.00 | 0.00 | 37 | 1006.9 |
| 20260507211533 | 13 | 294 | 12.9 | 27.4 | 0.00 | 0.00 | 0.00 | 37 | 1007.1 |
| 20260507210529 | 13 | 310 | 8.0 | 22.5 | 0.00 | 0.00 | 0.00 | 37 | 1007.1 |
| 20260507205526 | 13 | 317 | 9.7 | 16.1 | 0.00 | 0.00 | 0.00 | 37 | 1007.1 |
| 20260507204521 | 12 | 312 | 11.3 | 22.5 | 0.00 | 0.00 | 0.00 | 38 | 1007.2 |
| 20260507203538 | 12 | 315 | 9.7 | 20.9 | 0.00 | 0.00 | 0.00 | 39 | 1007.2 |
| 20260507202533 | 12 | 299 | 11.3 | 29.0 | 0.00 | 0.00 | 0.00 | 38 | 1007.2 |
| 20260507201530 | 13 | 291 | 14.5 | 29.0 | 0.00 | 0.00 | 0.00 | 38 | 1007.1 |
| 20260507200526 | 13 | 288 | 14.5 | 24.1 | 0.00 | 0.00 | 0.00 | 37 | 1007.1 |
| 20260507195542 | 13 | 290 | 12.9 | 25.7 | 0.00 | 0.00 | 0.00 | 38 | 1007.2 |
| 20260507194518 | 13 | 285 | 14.5 | 29.0 | 0.00 | 0.00 | 0.00 | 38 | 1007.3 |
| 20260507193554 | 12 | 305 | 9.7 | 29.0 | 0.00 | 0.00 | 0.00 | 39 | 1007.3 |
| 20260507192530 | 12 | 298 | 8.0 | 20.9 | 0.00 | 0.00 | 0.00 | 41 | 1007.2 |
| 20260507191526 | 13 | 298 | 12.9 | 24.1 | 0.00 | 0.00 | 0.00 | 38 | 1007.4 |
| 20260507190522 | 13 | 299 | 11.3 | 25.7 | 0.00 | 0.00 | 0.00 | 38 | 1007.3 |
| 20260507185518 | 13 | 281 | 16.1 | 29.0 | 0.00 | 0.00 | 0.00 | 39 | 1007.3 |
| 20260507184534 | 13 | 292 | 14.5 | 25.7 | 0.00 | 0.00 | 0.00 | 40 | 1007.4 |
| 20260507183550 | 13 | 296 | 14.5 | 29.0 | 0.00 | 0.00 | 0.00 | 40 | 1007.3 |
| 20260507182546 | 14 | 291 | 16.1 | 30.6 | 0.00 | 0.00 | 0.00 | 40 | 1007.5 |
| 20260507181522 | 13 | 295 | 12.9 | 22.5 | 0.00 | 0.00 | 0.00 | 42 | 1007.5 |
| 20260507180518 | 13 | 293 | 11.3 | 25.7 | 0.00 | 0.00 | 0.00 | 42 | 1007.5 |
| 20260507175534 | 13 | 309 | 12.9 | 25.7 | 0.00 | 0.00 | 0.00 | 40 | 1007.6 |
| 20260507174530 | 13 | 293 | 11.3 | 24.1 | 0.00 | 0.00 | 0.00 | 43 | 1007.5 |
| 20260507173526 | 13 | 305 | 11.3 | 27.4 | 0.00 | 0.00 | 0.00 | 41 | 1007.5 |
| 20260507172522 | 13 | 286 | 12.9 | 27.4 | 0.00 | 0.00 | 0.00 | 41 | 1007.6 |
| 20260507171518 | 13 | 303 | 11.3 | 24.1 | 0.00 | 0.00 | 0.00 | 42 | 1007.6 |
| 20260507170534 | 13 | 307 | 8.0 | 17.7 | 0.00 | 0.00 | 0.00 | 41 | 1007.8 |
| 20260507165550 | 13 | 306 | 6.4 | 16.1 | 0.00 | 0.00 | 0.00 | 42 | 1007.8 |
| 20260507164526 | 13 | 301 | 8.0 | 17.7 | 0.00 | 0.00 | 0.00 | 42 | 1007.9 |
| 20260507163522 | 13 | 309 | 8.0 | 12.9 | 0.00 | 0.00 | 0.00 | 43 | 1007.8 |
| 20260507162518 | 13 | 312 | 8.0 | 16.1 | 0.00 | 0.00 | 0.00 | 44 | 1007.9 |
| 20260507161534 | 13 | 307 | 9.7 | 17.7 | 0.00 | 0.00 | 0.00 | 45 | 1008.0 |
| 20260507160531 | 13 | 311 | 8.0 | 14.5 | 0.00 | 0.00 | 0.00 | 47 | 1008.0 |
| 20260507155526 | 12 | 26 | 4.8 | 11.3 | 0.00 | 0.00 | 0.00 | 49 | 1008.1 |
| 20260507154543 | 12 | 316 | 6.4 | 14.5 | 0.00 | 0.00 | 0.00 | 45 | 1008.2 |
| 20260507153518 | 12 | 323 | 6.4 | 12.9 | 0.00 | 0.00 | 0.00 | 45 | 1008.1 |
| 20260507152534 | 12 | 316 | 8.0 | 17.7 | 0.00 | 0.00 | 0.00 | 45 | 1008.0 |
| 20260507151530 | 13 | 321 | 6.4 | 16.1 | 0.00 | 0.00 | 0.00 | 45 | 1008.1 |
| 20260507150526 | 12 | 301 | 11.3 | 22.5 | 0.00 | 0.00 | 0.00 | 45 | 1008.2 |
| 20260507145542 | 12 | 302 | 12.9 | 27.4 | 0.00 | 0.00 | 0.00 | 45 | 1008.2 |
| 20260507144538 | 12 | 322 | 6.4 | 11.3 | 0.00 | 0.00 | 0.00 | 45 | 1008.3 |
| 20260507143534 | 12 | 327 | 6.4 | 12.9 | 0.00 | 0.00 | 0.00 | 49 | 1008.2 |
| 20260507142530 | 12 | 326 | 3.2 | 12.9 | 0.00 | 0.00 | 0.00 | 48 | 1008.3 |
| 20260507141527 | 11 | 327 | 4.8 | 11.3 | 0.00 | 0.00 | 0.00 | 50 | 1008.5 |
| 20260507140523 | 11 | 334 | 4.8 | 9.7 | 0.00 | 0.00 | 0.00 | 52 | 1008.6 |
| 20260507135538 | 11 | 326 | 4.8 | 11.3 | 0.00 | 0.00 | 0.00 | 51 | 1008.6 |
| 20260507134535 | 11 | 330 | 3.2 | 9.7 | 0.00 | 0.00 | 0.00 | 52 | 1008.8 |
| 20260507133550 | 10 | 332 | 1.6 | 6.4 | 0.00 | 0.00 | 0.00 | 58 | 1008.8 |
| 20260507132526 | 10 | 327 | 4.8 | 9.7 | 0.00 | 0.00 | 0.00 | 58 | 1008.7 |
| 20260507131522 | 10 | 327 | 3.2 | 4.8 | 0.00 | 0.00 | 0.00 | 63 | 1008.8 |
| 20260507130539 | 9 | 328 | 3.2 | 6.4 | 0.00 | 0.00 | 0.00 | 65 | 1008.7 |
| 20260507125534 | 8 | 328 | 3.2 | 4.8 | 0.00 | 0.00 | 0.00 | 71 | 1008.7 |
| 20260507124531 | 8 | 332 | 0.0 | 3.2 | 0.00 | 0.00 | 0.00 | 71 | 1008.8 |
| 20260507123526 | 7 | 332 | 0.0 | 1.6 | 0.00 | 0.00 | 0.00 | 74 | 1008.9 |
| 20260507122522 | 7 | 332 | 0.0 | 1.6 | 0.00 | 0.00 | 0.00 | 74 | 1008.8 |
| 20260507121518 | 6 | 332 | 0.0 | 1.6 | 0.00 | 0.00 | 0.00 | 75 | 1008.7 |
| 20260507120534 | 6 | 332 | 1.6 | 3.2 | 0.00 | 0.00 | 0.00 | 75 | 1008.8 |
| 20260507115531 | 5 | 335 | 1.6 | 3.2 | 0.00 | 0.00 | 0.00 | 75 | 1008.7 |
| 20260507114527 | 5 | 336 | 3.2 | 4.8 | 0.00 | 0.00 | 0.00 | 76 | 1008.7 |
| 20260507113543 | 5 | 332 | 1.6 | 3.2 | 0.00 | 0.00 | 0.00 | 76 | 1008.7 |
| 20260507112519 | 5 | 332 | 0.0 | 3.2 | 0.00 | 0.00 | 0.00 | 76 | 1008.7 |
| 20260507111534 | 4 | 333 | 1.6 | 3.2 | 0.00 | 0.00 | 0.00 | 76 | 1008.7 |
| 20260507110530 | 4 | 333 | 0.0 | 1.6 | 0.00 | 0.00 | 0.00 | 76 | 1008.4 |
| 20260507105526 | 4 | 0.0 | 0.0 | 0.00 | 0.00 | 0.00 | 76 | 1008.6 | |
| 20260507104522 | 4 | 0.0 | 0.0 | 0.00 | 0.00 | 0.00 | 77 | 1008.3 | |
| 20260507103518 | 4 | 332 | 1.6 | 3.2 | 0.00 | 0.00 | 0.00 | 77 | 1008.2 |
| 20260507102534 | 4 | 334 | 1.6 | 3.2 | 0.00 | 0.00 | 0.00 | 76 | 1008.3 |
| 20260507101530 | 4 | 335 | 1.6 | 3.2 | 0.00 | 0.00 | 0.00 | 75 | 1008.2 |
| 20260507100526 | 4 | 337 | 1.6 | 3.2 | 0.00 | 0.00 | 0.00 | 75 | 1008.2 |
| 20260507095522 | 5 | 338 | 1.6 | 3.2 | 0.00 | 0.00 | 0.00 | 75 | 1008.1 |
| 20260507094518 | 5 | 0.0 | 0.0 | 0.00 | 0.00 | 0.00 | 75 | 1008.1 | |
| 20260507093534 | 5 | 0.0 | 0.0 | 0.00 | 0.00 | 0.00 | 75 | 1008.1 | |
| 20260507092530 | 5 | 0.0 | 0.0 | 0.00 | 0.00 | 0.00 | 74 | 1008.3 | |
| 20260507091526 | 5 | 0.0 | 0.0 | 0.00 | 0.00 | 0.00 | 74 | 1008.2 | |
| 20260507090542 | 5 | 0.0 | 0.0 | 0.00 | 0.00 | 0.00 | 74 | 1008.3 | |
| 20260507085518 | 5 | 0.0 | 0.0 | 0.00 | 0.00 | 0.00 | 74 | 1008.5 | |
| 20260507084535 | 5 | 0.0 | 0.0 | 0.00 | 0.00 | 0.00 | 74 | 1008.4 | |
| 20260507083530 | 6 | 0.0 | 0.0 | 0.00 | 0.00 | 0.00 | 74 | 1008.4 | |
| 20260507082527 | 6 | 0.0 | 0.0 | 0.00 | 0.00 | 0.00 | 73 | 1008.4 | |
| 20260507081523 | 6 | 339 | 0.0 | 1.6 | 0.00 | 0.00 | 0.00 | 73 | 1008.4 |
| 20260507080518 | 6 | 339 | 0.0 | 1.6 | 0.00 | 0.00 | 0.00 | 72 | 1008.3 |
| 20260507075534 | 6 | 339 | 0.0 | 1.6 | 0.00 | 0.00 | 0.00 | 70 | 1008.4 |
| 20260507074530 | 6 | 0.0 | 0.0 | 0.00 | 0.00 | 0.00 | 69 | 1008.3 | |
| 20260507073546 | 7 | 332 | 0.0 | 1.6 | 0.00 | 0.00 | 0.00 | 68 | 1008.3 |
| 20260507072523 | 7 | 332 | 1.6 | 3.2 | 0.00 | 0.00 | 0.00 | 68 | 1008.2 |
| 20260507071518 | 7 | 332 | 1.6 | 3.2 | 0.00 | 0.00 | 0.00 | 69 | 1008.3 |
| 20260507070534 | 7 | 332 | 1.6 | 3.2 | 0.00 | 0.00 | 0.00 | 69 | 1008.2 |
| 20260507065530 | 7 | 332 | 0.0 | 3.2 | 0.00 | 0.00 | 0.00 | 69 | 1008.3 |
| 20260507064526 | 7 | 332 | 1.6 | 3.2 | 0.00 | 0.00 | 0.00 | 69 | 1008.3 |
| 20260507063522 | 8 | 333 | 1.6 | 3.2 | 0.00 | 0.00 | 0.00 | 70 | 1008.3 |
| 20260507062518 | 8 | 328 | 1.6 | 3.2 | 0.00 | 0.00 | 0.00 | 70 | 1008.2 |
| 20260507061534 | 8 | 329 | 3.2 | 6.4 | 0.00 | 0.00 | 0.00 | 72 | 1008.2 |
| 20260507060530 | 8 | 336 | 1.6 | 3.2 | 0.00 | 0.00 | 0.00 | 72 | 1008.2 |
| 20260507055546 | 8 | 336 | 1.6 | 3.2 | 0.00 | 0.00 | 0.00 | 73 | 1008.3 |
| 20260507054521 | 8 | 329 | 1.6 | 3.2 | 0.00 | 0.00 | 0.00 | 73 | 1008.3 |
| 20260507053537 | 8 | 237 | 0.0 | 1.6 | 0.00 | 0.00 | 0.00 | 73 | 1008.4 |
| 20260507052533 | 9 | 212 | 1.6 | 3.2 | 0.00 | 0.00 | 0.00 | 73 | 1008.5 |
| 20260507051529 | 9 | 225 | 1.6 | 4.8 | 0.00 | 0.00 | 0.00 | 73 | 1008.6 |
| 20260507050545 | 9 | 216 | 3.2 | 9.7 | 0.00 | 0.00 | 0.00 | 73 | 1008.6 |